[[{"header":{"parameterUnit":"m.s-1","parameterCategory":1,"la1":30.2991,"la2":30.254,"lo1":-89.0895,"lo2":-89.0444,"dy":0.0017,"dx":0.0017,"nx":28,"ny":28,"refTime":"2024-03-06T09:00:00:Z","depth":0,"parameterNumber":2,"parameterNumberName":"U-component_of_WINDS"},"data":[0,0,0,0,0,0,0,0,0,0,0,0,0,0,0,0,0,0,0,0,0,0,0,0,0,0,0,0,0,0,0,0,0,0,0,0,0,0,0,0,0,0,0,0,0,0,0,0,0,0,0,0,0,0,0,0,0,0,-4.2581,-4.2581,0,-4.2652,-4.2653,-4.2654,-4.2607,-4.2605,-4.2603,-4.2601,-4.2673,-4.2677,-4.2681,0,0,0,0,0,0,0,0,0,0,0,0,0,-4.2404,-4.2408,-4.258,-4.2581,-4.2582,-4.2652,-4.2653,-4.2654,-4.2608,-4.2605,-4.2602,-4.26,-4.2672,-4.2677,-4.2681,0,0,0,0,0,0,0,0,0,0,0,0,0,-4.2479,-4.2409,-4.258,-4.2568,-4.2567,-4.2652,-4.2653,-4.2654,-4.2608,-4.2605,-4.2602,-4.2599,-4.2671,-4.2676,-4.2682,-4.2783,0,0,-4.27,-4.2703,0,0,0,0,0,0,0,0,-4.2475,-4.2485,-4.2569,-4.2569,-4.2568,-4.2617,-4.2617,-4.2697,-4.2609,-4.2593,-4.2601,-4.2597,-4.2657,-4.2664,-4.2685,-4.2786,-4.279,-4.2701,-4.2704,-4.2707,-4.2708,0,0,0,0,0,0,0,-4.247,-4.2482,-4.2609,-4.257,-4.257,-4.2558,-4.2565,-4.2632,-4.2642,-4.2594,-4.259,-4.26,-4.2657,-4.2679,-4.2686,-4.2791,-4.2701,-4.2706,-4.2709,-4.2712,-4.298,-4.2983,0,0,0,0,0,0,-4.2465,-4.2478,-4.2606,-4.2611,-4.2513,-4.2564,-4.2572,-4.2605,-4.2641,-4.2644,-4.2602,-4.2597,-4.2671,-4.2679,-4.2688,-4.2808,-4.2707,-4.2712,-4.2716,-4.2976,-4.298,-4.2984,0,0,0,0,0,0,-4.2462,-4.2477,-4.2604,-4.2544,-4.2559,-4.2571,-4.2608,-4.2608,-4.263,-4.2648,-4.2649,-4.2623,-4.2668,-4.268,-4.276,-4.281,-4.2715,-4.272,-4.2972,-4.2977,-4.2982,-4.305,0,0,0,0,0,0,-4.2457,-4.2476,-4.2514,-4.2545,-4.2562,-4.2674,-4.2611,-4.2612,-4.2641,-4.2635,-4.2668,-4.267,-4.2667,-4.2751,-4.2766,-4.2817,-4.2725,-4.2967,-4.2974,-4.2981,-4.3043,-4.3057,-4.3069,0,0,0,0,0,-4.2451,-4.253,-4.2517,-4.2532,-4.261,-4.2677,-4.2687,-4.2681,-4.2645,-4.2683,-4.2695,-4.2669,-4.2803,-4.276,-4.2776,-4.2829,-4.2964,-4.2972,-4.298,-4.3037,-4.3054,-4.3068,0,0,0,0,0,0,-4.2504,-4.2534,-4.2519,-4.2611,-4.2642,-4.2669,-4.2717,-4.2699,-4.2741,-4.2733,-4.2725,-4.2733,-4.2816,-4.2831,-4.2783,-4.2929,-4.2878,-4.289,-4.2916,-4.2932,-4.2945,-4.2938,-4.273,0,0,0,0,0,-4.2527,-4.2579,-4.2602,-4.2681,-4.2697,-4.2705,-4.2734,-4.2727,-4.2759,-4.2771,-4.2789,-4.282,-4.287,-4.2902,-4.2948,-4.3046,-4.3052,-4.3091,-4.3104,-4.3114,-4.3123,-4.3176,-4.3193,-4.3011,-4.3011,-4.3011,0,0,-4.2574,-4.2597,-4.263,-4.2692,-4.2715,-4.2769,-4.2716,-4.2775,-4.2815,-4.278,-4.2856,-4.2871,-4.2906,-4.2995,-4.3035,-4.301,-4.3176,-4.3124,-4.3132,-4.3136,-4.3186,-4.3203,-4.3219,-4.3016,-4.3015,-4.3014,0,0,-4.2686,-4.2709,-4.2777,-4.2802,-4.2838,-4.2843,-4.286,-4.2891,-4.2899,-4.2976,-4.2951,-4.2999,-4.3084,-4.311,-4.3134,-4.326,-4.3238,-4.3276,-4.3341,-4.3393,-4.3407,-4.342,-4.3463,-4.3479,-4.3285,-4.3286,-4.3286,0,-4.2739,-4.2819,-4.2814,-4.2875,-4.2904,-4.2877,-4.2945,-4.297,-4.302,-4.304,-4.3011,-4.3118,-4.314,-4.3235,-4.3266,-4.3287,-4.3305,-4.327,-4.3405,-4.3418,-4.343,-4.3471,-4.3488,-4.329,-4.3289,-4.3289,-4.3288,0,-4.2883,-4.2939,-4.299,-4.3039,-4.3073,-4.3138,-4.3143,-4.3179,-4.317,-4.3178,-4.3257,-4.3283,-4.3334,-4.3357,-4.3349,-4.3451,-4.3434,-4.3406,-4.3354,-4.3451,-4.349,-4.3506,-4.3296,-4.3294,-4.3293,-4.3292,0,0,-4.3028,-4.3075,-4.3093,-4.3116,-4.3155,-4.3198,-4.3263,-4.3314,-4.3344,-4.338,-4.3433,-4.3508,-4.3482,-4.351,-4.3505,-4.3551,-4.3648,-4.3517,-4.3517,-4.3539,-4.3762,-4.3781,-4.3799,-4.3635,-4.3638,-4.364,-4.3758,0,-4.3141,-4.3253,-4.3251,-4.3354,-4.3406,-4.3383,-4.3439,-4.347,-4.348,-4.3526,-4.3537,-4.3589,-4.3552,-4.3569,-4.3613,-4.3626,-4.3692,-4.3618,-4.3683,-4.3685,-4.3672,-4.382,-4.384,-4.395,-4.3773,-4.3776,-4.3778,0,-4.3287,-4.3329,-4.3438,-4.3471,-4.3492,-4.3543,-4.3589,-4.3634,-4.3669,-4.3673,-4.3706,-4.3694,-4.376,-4.3708,-4.3799,-4.3749,-4.3776,-4.3787,-4.3791,-4.3794,-4.3736,-4.3826,-4.3985,-4.4001,-4.3802,-4.38,-4.3798,0,-4.338,-4.3464,-4.3539,-4.356,-4.36,-4.3636,-4.3655,-4.3687,-4.3718,-4.3759,-4.3779,-4.3828,-4.3854,-4.3893,-4.3895,-4.3857,-4.3986,-4.3934,-4.3991,-4.3991,-4.4016,-4.4014,-4.418,-4.4038,-4.4038,-4.4037,-4.4037,0,-4.3505,-4.3572,-4.3582,-4.3628,-4.3703,-4.3702,-4.3776,-4.3791,-4.382,-4.387,-4.3853,-4.39,-4.3901,-4.3949,-4.3952,-4.4026,-4.4039,-4.4044,-4.4043,-4.4044,-4.4043,-4.4059,-4.4051,-4.4042,-4.4041,-4.404,-4.4039,0,-4.362,-4.3629,-4.371,-4.3743,-4.3753,-4.3807,-4.3835,-4.3879,-4.3889,-4.3952,-4.3967,-4.3982,-4.4038,-4.4045,-4.411,-4.4112,-4.4201,-4.4193,-4.4189,-4.4187,-4.4242,-4.4236,-4.4422,-4.4446,-4.429,-4.4292,-4.4293,0,-4.3698,-4.3749,-4.3788,-4.382,-4.3841,-4.3893,-4.3925,-4.3926,-4.396,-4.4005,-4.4044,-4.4099,-4.4142,-4.4232,-4.4249,-4.4299,-4.4292,-4.4354,-4.4299,-4.4298,-4.429,-4.4286,-4.4291,-4.4363,-4.4365,-4.4366,-4.4367,0,-4.3835,-4.3838,-4.3884,-4.3933,-4.3972,-4.4011,-4.4047,-4.4074,-4.408,-4.412,-4.4177,-4.421,-4.4278,-4.4332,-4.4382,-4.4401,-4.4385,-4.4385,-4.4401,-4.44,-4.4395,-4.4397,-4.4215,-4.438,-4.4379,-4.4378,-4.4377,-4.4377,-4.3932,-4.3977,-4.4011,-4.4064,-4.4092,-4.4127,-4.417,-4.4187,-4.4235,-4.4289,-4.4288,-4.4351,-4.4386,-4.4451,-4.4475,-4.4524,-4.4503,-4.4526,-4.4531,-4.4536,-4.4541,-4.439,-4.4533,-4.4533,-4.4533,-4.4532,-4.4532,0,-4.4067,-4.4089,-4.4138,-4.4189,-4.4231,-4.4215,-4.4255,-4.4291,-4.4346,-4.438,-4.4424,-4.449,-4.4543,-4.4566,-4.4618,-4.4653,-4.4647,-4.4667,-4.4663,-4.4667,-4.4557,-4.4538,-4.467,-4.467,-4.467,-4.467,-4.467,-4.467,-4.4142,-4.4216,-4.4223,-4.4312,-4.4333,-4.4395,-4.4419,-4.4451,-4.4478,-4.4553,-4.4597,-4.4612,-4.4642,-4.4696,-4.4745,-4.475,-4.4769,-4.4791,-4.4793,-4.4689,-4.4675,-4.4662,-4.4643,-4.4796,-4.4796,-4.4899,-4.49,-4.4901]},{"header":{"parameterUnit":"m.s-1","parameterCategory":1,"la1":30.2991,"la2":30.254,"lo1":-89.0895,"lo2":-89.0444,"dy":0.0017,"dx":0.0017,"nx":28,"ny":28,"refTime":"2024-03-06T09:00:00:Z","depth":0,"parameterNumber":3,"parameterNumberName":"V-component_of_WINDS"},"data":[0,0,0,0,0,0,0,0,0,0,0,0,0,0,0,0,0,0,0,0,0,0,0,0,0,0,0,0,0,0,0,0,0,0,0,0,0,0,0,0,0,0,0,0,0,0,0,0,0,0,0,0,0,0,0,0,0,0,2.9653,2.9653,0,2.9684,2.9684,2.9685,2.9649,2.9648,2.9647,2.9645,2.9675,2.9677,2.9679,0,0,0,0,0,0,0,0,0,0,0,0,0,2.9562,2.9563,2.9652,2.9653,2.9653,2.9684,2.9684,2.9685,2.965,2.9648,2.9646,2.9645,2.9674,2.9677,2.9679,0,0,0,0,0,0,0,0,0,0,0,0,0,2.9598,2.9564,2.9652,2.964,2.9639,2.9684,2.9684,2.9685,2.965,2.9648,2.9646,2.9644,2.9673,2.9676,2.9679,2.9738,0,0,2.9689,2.969,0,0,0,0,0,0,0,0,2.9596,2.9601,2.9641,2.9641,2.964,2.9661,2.9663,2.9702,2.965,2.9646,2.9645,2.9643,2.9672,2.9675,2.9685,2.9739,2.974,2.9689,2.9691,2.9692,2.9693,0,0,0,0,0,0,0,2.9593,2.96,2.9665,2.9642,2.9641,2.9632,2.9635,2.967,2.9669,2.9646,2.9643,2.9648,2.9671,2.9682,2.9685,2.9741,2.9689,2.9691,2.9693,2.9695,2.9847,2.9849,0,0,0,0,0,0,2.9592,2.9598,2.9664,2.9666,2.9612,2.9635,2.9639,2.9656,2.9669,2.9669,2.9649,2.9646,2.9678,2.9682,2.9686,2.9757,2.9692,2.9695,2.9697,2.9845,2.9848,2.985,0,0,0,0,0,0,2.9591,2.9599,2.9663,2.9631,2.9639,2.9639,2.9659,2.9658,2.9669,2.9672,2.9671,2.9661,2.9676,2.9682,2.9726,2.9757,2.9696,2.9699,2.9842,2.9846,2.9849,2.9898,0,0,0,0,0,0,2.9588,2.9598,2.962,2.9632,2.964,2.9702,2.9661,2.966,2.9674,2.967,2.9682,2.9682,2.9675,2.9722,2.9729,2.976,2.9701,2.984,2.9844,2.9848,2.9894,2.9903,2.9911,0,0,0,0,0,2.9585,2.9632,2.9622,2.963,2.9668,2.9704,2.9709,2.97,2.9677,2.9699,2.9702,2.9682,2.9753,2.9726,2.9734,2.9767,2.9838,2.9843,2.9848,2.989,2.9901,2.991,0,0,0,0,0,0,2.9622,2.9633,2.9622,2.9674,2.9689,2.9698,2.9726,2.9712,2.9733,2.9728,2.9716,2.9719,2.9766,2.9771,2.9741,2.9826,2.9791,2.9798,2.9821,2.9831,2.984,2.9837,2.9704,0,0,0,0,0,2.9636,2.9665,2.9673,2.9718,2.9726,2.9725,2.974,2.9733,2.9747,2.9753,2.9758,2.9772,2.9798,2.9815,2.9838,2.9895,2.9897,2.9921,2.993,2.9937,2.9943,2.9975,2.9986,2.9867,2.9867,2.9867,0,0,2.9666,2.9675,2.9694,2.9726,2.9736,2.9766,2.973,2.9763,2.9785,2.9757,2.98,2.9805,2.982,2.9871,2.9894,2.9876,2.9976,2.9943,2.9949,2.9951,2.9981,2.9992,3.0002,2.987,2.987,2.9869,0,0,2.9735,2.9745,2.9785,2.9797,2.9814,2.9814,2.9823,2.9836,2.9839,2.9882,2.9862,2.9888,2.9932,2.9945,2.9957,3.0035,3.0018,3.0043,3.0086,3.0118,3.0127,3.0135,3.0164,3.0174,3.0049,3.0049,3.0049,0,2.9769,2.9814,2.9806,2.9842,2.9857,2.9835,2.9876,2.9888,2.9911,2.9922,2.9903,2.996,2.9968,3.0023,3.0043,3.0053,3.0064,3.0041,3.0126,3.0135,3.0142,3.017,3.018,3.0052,3.0051,3.0051,3.0051,0,2.9856,2.9888,2.9918,2.9944,2.9962,3.0,2.9998,3.0018,3.001,3.0012,3.0057,3.0067,3.0093,3.0105,3.0097,3.016,3.0149,3.0128,3.0093,3.0157,3.0182,3.0193,3.0056,3.0055,3.0054,3.0053,0,0,2.9947,2.9971,2.9982,2.9994,3.0013,3.0038,3.0075,3.0103,3.012,3.0138,3.017,3.0209,3.0191,3.0205,3.0198,3.0226,3.0289,3.0202,3.0202,3.0218,3.036,3.0376,3.0388,3.0278,3.028,3.0282,3.0359,0,3.0017,3.0083,3.0079,3.0141,3.0171,3.0153,3.0186,3.0201,3.0205,3.0231,3.0234,3.0263,3.0236,3.0245,3.0271,3.0275,3.0317,3.027,3.0307,3.0309,3.0304,3.0401,3.0417,3.0489,3.0369,3.0371,3.0372,0,3.0108,3.0132,3.0197,3.0215,3.0227,3.0257,3.0283,3.0308,3.0326,3.0326,3.0344,3.0333,3.0371,3.0336,3.0389,3.0358,3.0373,3.0378,3.038,3.0383,3.0344,3.0407,3.0512,3.0523,3.0387,3.0386,3.0385,0,3.0169,3.0217,3.0263,3.0274,3.0295,3.0317,3.0327,3.0343,3.036,3.0383,3.0395,3.0421,3.0436,3.0456,3.0453,3.0428,3.0508,3.0472,3.051,3.051,3.0527,3.0526,3.0637,3.0537,3.0537,3.0536,3.0536,0,3.0248,3.029,3.0292,3.032,3.0366,3.0361,3.0407,3.0414,3.0429,3.0459,3.0444,3.0472,3.0466,3.0494,3.0492,3.0537,3.0543,3.0545,3.0544,3.0547,3.0547,3.0556,3.0551,3.0539,3.0539,3.0538,3.0538,0,3.0324,3.0327,3.0376,3.0393,3.0399,3.0432,3.0447,3.0474,3.0477,3.0515,3.0523,3.0528,3.0561,3.0561,3.0597,3.0595,3.0651,3.0644,3.0646,3.0644,3.0682,3.0679,3.0803,3.082,3.0709,3.071,3.0711,0,3.0374,3.0406,3.0428,3.0447,3.0459,3.049,3.0509,3.0506,3.0526,3.0551,3.0576,3.0607,3.0632,3.0685,3.0692,3.072,3.0714,3.0756,3.0718,3.072,3.0716,3.0714,3.0718,3.0763,3.0764,3.0765,3.0766,0,3.0464,3.0465,3.0493,3.0523,3.0547,3.0569,3.059,3.0607,3.0607,3.063,3.0665,3.0684,3.0723,3.0755,3.0783,3.0793,3.078,3.0778,3.0788,3.0791,3.0791,3.0793,3.0666,3.0775,3.0774,3.0773,3.0773,3.0772,3.0529,3.0557,3.0578,3.0611,3.0627,3.0648,3.0675,3.0683,3.0712,3.0744,3.0741,3.0779,3.0798,3.0835,3.0847,3.0877,3.0863,3.0877,3.0881,3.0885,3.089,3.0787,3.0882,3.0882,3.0882,3.0882,3.0881,0,3.0619,3.0632,3.0662,3.0694,3.072,3.0708,3.0731,3.0754,3.0788,3.0808,3.0834,3.0874,3.0906,3.0916,3.0947,3.0969,3.0964,3.0977,3.0976,3.0979,3.09,3.0889,3.0981,3.0981,3.0981,3.0981,3.0981,3.0981,3.0668,3.0717,3.072,3.0777,3.0789,3.0828,3.0843,3.0863,3.0879,3.0925,3.0952,3.0959,3.0975,3.1008,3.1037,3.1039,3.1051,3.1067,3.1067,3.0994,3.0984,3.0974,3.0963,3.107,3.107,3.1142,3.1143,3.1144]}]]